Date String (YYYY-MM-DD hh:mm:ss) UTC,Instrument flags,Ambient pressure (hPa),Sample flow (lpm),Bypass flow (lpm),Sample temperature (°C),Ambient temperature (°C),ASC tube jacket temperature (°C),LED temperature (°C),Box temperature (°C),Sample RH (%),Span deviation,Mass concentration (μg/m³),Mass concentration (μg/m³),Mass concentration (μg/m³)
DateTimeUTC,F1_M11,P_M11,Q1_M11,Q2_M11,T1_M11,T2_M11,T3_M11,T4_M11,T5_M11,U1_M11,ZSPAN_M11,X2_M11,X0_M11,X1_M11
2023-05-02 12:00:00,,0829.1,5.00,0.00,27.2,25.5,00.0,35.6,28.7,14.8,0004.6,0005.92,0016.50,0004.75
2023-05-02 12:01:00,,0829.1,5.00,0.00,27.1,25.5,00.0,35.6,28.7,14.8,0004.5,0005.96,0015.57,0004.76
2023-05-02 12:02:00,,0829.1,5.00,0.00,27.1,25.5,00.0,35.6,28.6,14.8,0004.7,0006.00,0014.73,0004.77
2023-05-02 12:03:00,,0829.1,5.01,0.00,27.1,25.5,00.0,35.6,28.6,14.8,0004.6,0006.04,0014.46,0004.79
2023-05-02 12:04:00,,0829.1,5.01,0.00,27.1,25.5,00.0,35.6,28.6,14.8,0005.1,0006.09,0014.57,0004.80
2023-05-02 12:05:00,,0829.1,5.00,0.00,27.1,25.4,00.0,35.6,28.6,14.8,0005.0,0006.10,0014.11,0004.81
2023-05-02 12:06:00,,0829.1,5.00,0.00,27.1,25.4,00.0,35.5,28.6,14.8,0004.8,0006.15,0015.15,0004.83
2023-05-02 12:07:00,,0829.1,5.01,0.00,27.1,25.4,00.0,35.5,28.6,14.8,0004.9,0006.20,0015.94,0004.83
2023-05-02 12:08:00,,0829.1,5.00,0.00,27.1,25.4,00.0,35.5,28.6,14.8,0005.0,0006.19,0015.95,0004.83
2023-05-02 12:09:00,,0829.1,5.00,0.00,27.0,25.3,00.0,35.5,28.6,14.8,0004.9,0006.13,0016.15,0004.83
2023-05-02 12:10:00,,0829.1,4.99,0.00,27.0,25.3,00.0,35.5,28.5,14.8,0004.8,0006.13,0015.70,0004.84
2023-05-02 12:11:00,,0829.1,5.00,0.00,27.0,25.3,00.0,35.5,28.5,14.8,0003.6,0006.15,0015.85,0004.83
2023-05-02 12:12:00,,0829.1,5.00,0.00,27.0,25.3,00.0,35.5,28.5,14.9,0000.0,0006.13,0015.88,0004.85
2023-05-02 12:13:00,,0829.1,5.00,0.00,27.0,25.3,00.0,35.4,28.5,14.9,0000.0,0006.12,0015.87,0004.86
2023-05-02 12:14:00,,0829.2,5.00,0.00,27.0,25.2,00.0,35.4,28.5,14.8,0000.0,0006.15,0016.46,0004.87
2023-05-02 12:15:00,,0829.2,5.00,0.00,27.0,25.2,00.0,35.4,28.5,14.8,0000.0,0006.16,0016.45,0004.88
2023-05-02 12:16:00,,0829.1,5.00,0.00,26.9,25.2,00.0,35.4,28.5,14.8,0000.0,0006.14,0016.99,0004.89
2023-05-02 12:17:00,,0829.2,5.01,0.00,26.9,25.2,00.0,35.4,28.4,14.9,0000.6,0006.15,0016.70,0004.88
2023-05-02 12:18:00,,0829.2,5.00,0.00,26.9,25.1,00.0,35.4,28.4,14.9,0003.1,0006.14,0016.35,0004.90
2023-05-02 12:19:00,,0829.2,5.00,0.00,26.9,25.1,00.0,35.4,28.4,14.9,0002.9,0006.15,0017.64,0004.90
2023-05-02 12:20:00,,0829.2,5.00,0.00,26.9,25.1,00.0,35.4,28.4,14.9,0002.3,0006.20,0017.64,0004.92
2023-05-02 12:21:00,,0829.2,5.01,0.00,26.9,25.1,00.0,35.4,28.4,14.9,0001.4,0006.22,0017.88,0004.93
2023-05-02 12:22:00,,0829.3,5.00,0.00,26.9,25.1,00.0,35.3,28.4,15.0,0000.9,0006.20,0017.43,0004.94
2023-05-02 12:23:00,,0829.2,4.99,0.00,26.9,25.1,00.0,35.3,28.4,15.1,0000.8,0006.24,0017.53,0004.93
2023-05-02 12:24:00,,0829.3,4.99,0.00,26.9,25.1,00.0,35.3,28.4,15.3,0000.9,0006.27,0018.25,0004.94
2023-05-02 12:25:00,,0829.3,5.01,0.00,26.9,25.1,00.0,35.3,28.4,15.5,0001.5,0006.26,0017.94,0004.94
2023-05-02 12:26:00,,0829.3,5.00,0.00,26.8,25.1,00.0,35.3,28.4,15.4,0001.5,0006.25,0017.78,0004.93
2023-05-02 12:27:00,,0829.3,5.00,0.00,26.8,25.1,00.0,35.3,28.4,15.4,0001.9,0006.27,0017.83,0004.92
2023-05-02 12:28:00,,0829.3,4.99,0.00,26.8,25.1,00.0,35.3,28.3,15.4,0002.4,0006.31,0018.36,0004.91
2023-05-02 12:29:00,,0829.3,5.00,0.00,26.8,25.0,00.0,35.3,28.3,15.4,0003.0,0006.30,0018.64,0004.90
2023-05-02 12:30:00,,0829.4,5.00,0.00,26.8,25.0,00.0,35.2,28.3,15.4,0002.9,0006.31,0018.09,0004.90
2023-05-02 12:31:00,,0829.4,5.01,0.00,26.8,25.0,00.0,35.2,28.3,15.4,0003.1,0006.28,0017.50,0004.89
2023-05-02 12:32:00,,0829.3,5.00,0.00,26.7,25.0,00.0,35.2,28.3,15.3,0003.5,0006.25,0017.23,0004.88
2023-05-02 12:33:00,,0829.4,5.00,0.00,26.7,25.0,00.0,35.2,28.3,15.2,0002.0,0006.25,0016.98,0004.87
2023-05-02 12:34:00,,0829.3,5.00,0.00,26.7,24.9,00.0,35.2,28.2,15.4,0000.8,0006.25,0016.76,0004.88
2023-05-02 12:35:00,,0829.3,5.00,0.00,26.7,24.9,00.0,35.2,28.2,15.5,0000.0,0006.23,0016.33,0004.87
2023-05-02 12:36:00,,0829.3,5.00,0.00,26.7,25.0,00.0,35.2,28.3,15.4,0000.0,0006.23,0016.25,0004.87
2023-05-02 12:37:00,,0829.3,5.00,0.00,26.7,25.0,00.0,35.2,28.3,15.4,0000.0,0006.30,0016.63,0004.87
2023-05-02 12:38:00,,0829.4,5.00,0.00,26.7,25.0,00.0,35.2,28.3,15.4,0000.0,0006.28,0016.53,0004.87
2023-05-02 12:39:00,,0829.5,5.00,0.00,26.7,25.0,00.0,35.1,28.3,15.4,0000.0,0006.25,0015.54,0004.87
2023-05-02 12:40:00,,0829.5,5.00,0.00,26.7,25.0,00.0,35.1,28.3,15.4,0000.0,0006.29,0014.81,0004.88
2023-05-02 12:41:00,,0829.5,4.99,0.00,26.7,25.0,00.0,35.1,28.3,15.3,0000.5,0006.33,0015.12,0004.89
2023-05-02 12:42:00,,0829.5,4.99,0.00,26.7,25.0,00.0,35.1,28.3,15.2,0003.1,0006.39,0015.74,0004.88
2023-05-02 12:43:00,,0829.4,5.00,0.00,26.7,25.1,00.0,35.1,28.3,15.3,0000.3,0006.51,0016.73,0004.89
2023-05-02 12:44:00,,0829.4,5.01,0.00,26.7,25.1,00.0,35.1,28.3,15.2,0001.6,0006.59,0017.48,0004.90
2023-05-02 12:45:00,,0829.4,5.01,0.00,26.7,25.1,00.0,35.1,28.3,15.3,0000.0,0006.62,0017.41,0004.90
2023-05-02 12:46:00,,0829.3,5.00,0.00,26.7,25.1,00.0,35.1,28.3,15.3,0003.1,0006.61,0017.33,0004.90
2023-05-02 12:47:00,,0829.3,5.00,0.00,26.7,25.1,00.0,35.1,28.3,15.2,0003.9,0006.63,0017.49,0004.89
2023-05-02 12:48:00,,0829.4,4.99,0.00,26.7,25.1,00.0,35.1,28.3,15.1,0004.0,0006.58,0017.49,0004.88
2023-05-02 12:49:00,,0829.4,4.99,0.00,26.7,25.1,00.0,35.1,28.3,15.3,0003.9,0006.59,0017.82,0004.88
2023-05-02 12:50:00,,0829.5,5.00,0.00,26.7,25.1,00.0,35.1,28.3,15.3,0003.8,0006.62,0018.67,0004.88
2023-05-02 12:51:00,,0829.5,5.01,0.00,26.7,25.1,00.0,35.1,28.3,15.1,0003.8,0006.70,0020.02,0004.89
2023-05-02 12:52:00,,0829.5,5.01,0.00,26.7,25.1,00.0,35.1,28.3,14.9,0004.5,0006.68,0020.40,0004.87
2023-05-02 12:53:00,,0829.6,5.00,0.00,26.7,25.1,00.0,35.1,28.3,15.0,0003.9,0006.62,0019.25,0004.88
2023-05-02 12:54:00,,0829.6,4.99,0.00,26.7,25.2,00.0,35.1,28.3,15.1,0005.0,0006.50,0017.61,0004.88
2023-05-02 12:55:00,,0829.6,4.99,0.00,26.7,25.1,00.0,35.1,28.3,15.2,0005.0,0006.37,0017.02,0004.85
2023-05-02 12:56:00,,0829.6,5.01,0.00,26.7,25.1,00.0,35.1,28.3,15.0,0004.8,0006.36,0017.50,0004.84
2023-05-02 12:57:00,,0829.5,5.01,0.00,26.7,25.1,00.0,35.1,28.3,15.1,0004.8,0006.38,0017.81,0004.84
2023-05-02 12:58:00,,0829.5,5.00,0.00,26.7,25.1,00.0,35.1,28.3,15.0,0004.6,0006.40,0018.42,0004.84
2023-05-02 12:59:00,,0829.5,4.99,0.00,26.7,25.1,00.0,35.1,28.3,15.0,0004.7,0006.39,0018.35,0004.82
